Regional Weather Roundup
Issued by NWS

Home | Current Version | Previous Version | Text Only | Print | Product List | Glossary Off
Versions: 1 2 3 4 5 6 7 8 9 10 11 12 13 14 15 16 17 18 19 20 21 22 23 24 25 26 27 28 29 30 31 32 33 34 35 36 37 38 39 40 41 42 43 44 45 46 47 48 49 50

000
ASUS45 KCYS 101610
RWRWY

WYOMING REGIONAL WEATHER ROUNDUP
NATIONAL WEATHER SERVICE CHEYENNE WY
900 AM MST SAT DEC 10 2016

NOTE:  "FAIR" INDICATES FEW OR NO CLOUDS BELOW 12,000 FEET
WITH NO SIGNIFICANT WEATHER AND/OR OBSTRUCTIONS TO VISIBILITY.

WYZ001-101700-
YELLOWSTONE NATIONAL PARK

CITY           SKY/WX    TMP DP  RH WIND       PRES   REMARKS
LK YELLOWSTONE   N/A     27  24  89 W8        29.73F WCI  19
W YELLOWSTONE  NOT AVBL

$$
WYZ002>013-054>058-071-098>099-101700-
NORTHERN WYOMING

CITY           SKY/WX    TMP DP  RH WIND       PRES   REMARKS
JACKSON        CLOUDY    34  34 100 SW10      29.77F WCI  26
CODY           FAIR      13   7  77 CALM      29.72F
GREYBULL       FAIR      11   5  77 CALM      29.80F
WORLAND        FAIR       9   4  80 NE3       29.77F
SHERIDAN       CLOUDY    12   6  77 CALM      29.78F
BUFFALO        FAIR      11   4  73 SW3       29.72F
GILLETTE       FAIR       5   1  83 S14       29.77F WCI -12
HULETT         CLOUDY     7   3  85 CALM      29.81F
NEWCASTLE      FAIR       3   0  85 S5        29.86F WCI  -6

$$
WYZ014>020-022>026-101>103-101700-
CENTRAL WYOMING

CITY           SKY/WX    TMP DP  RH WIND       PRES   REMARKS
BIG PINEY      PTSUNNY   28  26  92 SW8       29.83F WCI  20
PINEDALE       CLOUDY    30  28  93 SE7       29.84F WCI  23
DUBOIS         CLOUDY    32  27  80 NW10      29.71F WCI  24
LANDER         FAIR      15   8  73 NW7       29.73F WCI   5
RIVERTON       FAIR      15   9  76 NE3       29.75F
CASPER         FAIR      36  26  67 SW26G44   29.76S WCI  24
DOUGLAS        CLOUDY    35  23  61 VRB3      29.77F

$$
WYZ021-027>030-104>119-101700-
SOUTHERN WYOMING

CITY           SKY/WX    TMP DP  RH WIND       PRES   REMARKS
EVANSTON       SNOW      32  30  92 SW20      29.91F VSB 1/4 WCI  20
KEMMERER         N/A     32  32 100 SW22      29.88F WCI  19
FORT BRIDGER   CLOUDY    37  36  97 W22G30    29.91F WCI  25
ROCK SPRINGS   CLOUDY    34  28  79 SW12      29.90F WCI  25
DIXON          CLOUDY    38  26  61 W12       29.98R WCI  31
RAWLINS        PTSUNNY   36  21  54 SW30G41   29.86F WCI  23
SARATOGA       PTSUNNY   37  23  56 S7        29.90S WCI  32
LARAMIE        CLOUDY    40  21  46 SW16        N/A  WCI  31
CHEYENNE       FAIR      47  20  34 W21G40    29.85F
TORRINGTON     CLOUDY    16  11  80 E6        29.86S WCI   7
PINE BLUFFS    FAIR      23  19  86 SW8       29.87F WCI  14

$$



USA.gov is the U.S. government's official web portal to all federal, state and local government web resources and services.